Regional Weather Roundup
Issued by NWS

Home | Current Version | Previous Version | Text Only | Print | Product List | Glossary On
Versions: 1 2 3 4 5 6 7 8 9 10 11 12 13 14 15 16 17 18 19 20 21 22 23 24 25 26 27 28 29 30 31 32 33 34 35 36 37 38 39 40 41 42 43 44 45 46 47 48 49 50
000
ASUS46 KSEW 281110
RWRWA

WASHINGTON REGIONAL WEATHER ROUNDUP
NATIONAL WEATHER SERVICE SEATTLE WA
400 AM PDT FRI APR 28 2017

NOTE:"FAIR" INDICATES FEW OR NO CLOUDS BELOW 12,000 FEET WITH NO
SIGNIFICANT WEATHER AND/OR OBSTRUCTIONS TO VISIBILITY.

WAZ507-509-555>559-281200-
SEATTLE, TACOMA, EVERETT, AND VICINITY

CITY           SKY/WX    TMP DP  RH WIND       PRES   REMARKS
EVERETT        CLOUDY    45  42  89 SW5       30.25R
BOEING FIELD   LGT RAIN  46  43  89 S3        30.26R
RENTON         LGT RAIN  47  44  90 S5        30.26R
SEATAC AIRPORT CLOUDY    44  41  89 S3        30.26R
JBLM-MCCHORD   CLEAR     38  38 100 CALM      30.26S FOG
PUYALLUP         N/A     37  37 100 CALM      30.26R FOG
BREMERTON      NOT AVBL
JBLM-FT LEWIS  CLEAR     39  38  97 S1        30.30R
TACOMA NARROWS CLEAR     41  40  96 S7        30.26R
$$

WAZ001-503-506-510-514-515-281200-
NORTH INTERIOR

CITY           SKY/WX    TMP DP  RH WIND       PRES   REMARKS
BELLINGHAM     MOCLDY    47  42  83 S5        30.23R
FRIDAY HARBOR  CLEAR     37  36  96 CALM      30.26R
EASTSOUND      CLEAR     41  39  93 S3        30.23R
PORT ANGELES   CLEAR     42  34  73 W10       30.26R
EDIZ HOOK      CLOUDY    46  37  70 SW8       30.26R
PORT TOWNSEND  CLOUDY    37  36  93 CALM      30.26R
NAS WHIDBEY    CLOUDY    49  42  77 W10       30.28R
ARLINGTON      CLOUDY    43  34  70 S3        30.27S
BURLINGTON     CLOUDY    43  41  93 CALM      30.25R
$$

WAZ020-022-039-040-504-511-512-281200-
SOUTHWEST INTERIOR

CITY           SKY/WX    TMP DP  RH WIND       PRES   REMARKS
SHELTON        CLOUDY    37  35  92 CALM      30.25R
OLYMPIA        CLEAR     37  35  92 CALM      30.27R
CHEHALIS       CLOUDY    37  37 100 S5        30.27S
KELSO          CLOUDY    42  40  92 CALM      30.30R
VANCOUVER      PTCLDY    41  39  93 CALM      30.29R
SCAPPOOSE, OR  PTCLDY    37  36  96 CALM      30.29R
PORTLAND, OR   MOCLDY    41  38  89 CALM      30.30R
$$

WAZ021-516-517-281200-
WASHINGTON COAST

CITY           SKY/WX    TMP DP  RH WIND       PRES   REMARKS
FORKS          CLOUDY    43  42  97 CALM      30.26S
HOQUIAM        MOCLDY    44  40  85 CALM      30.28R
ASTORIA, OR    MOCLDY    43  40  89 S5        30.29R
$$

WAZ019-023-024-040-567>569-281200-
CASCADE MOUNTAINS AND COLUMBIA GORGE

CITY           SKY/WX    TMP DP  RH WIND       PRES   REMARKS
STAMPEDE PASS  FOG       30  30 100 VRB6      30.12R VSB 1/4
TROUTDALE, OR  MOCLDY    41  38  89 SW5       30.29R
THE DALLES, OR CLEAR     43  32  65 NW8       30.20R
$$

WAZ026-027-041>044-520-521-281200-
EAST SLOPES

CITY           SKY/WX    TMP DP  RH WIND       PRES   REMARKS
OMAK           CLEAR     37  27  67 N9        30.06R
WENATCHEE      MOCLDY    44  27  51 NW10      30.09R
ELLENSBURG     CLEAR     41  30  65 NW18      30.09R
YAKIMA         CLEAR     44  27  51 NW8       30.12R
SUNNYSIDE ARPT SUNNY     36  29  76 S5        30.12R
$$

WAZ028-034-035-281200-
COLUMBIA BASIN

CITY           SKY/WX    TMP DP  RH WIND       PRES   REMARKS
EPHRATA        CLOUDY    49  23  36 NW16G25   30.02R
MOSES LAKE     CLOUDY    47  28  47 NW5       30.06R
PASCO          PTCLDY    41  30  65 SW3       30.12R
HERMISTON, OR  CLEAR     43  35  73 SW13      30.13R
$$

WAZ036>038-281200-
NORTHEAST WASHINGTON

CITY           SKY/WX    TMP DP  RH WIND       PRES   REMARKS
SPOKANE GEIGER MOCLDY    39  32  76 S3        29.99R
SPOKANE FELTS  MOCLDY    39  37  92 CALM      30.00R
FAIRCHILD AFB  CLOUDY    36  34  95 SW5       29.98R
COEURDALENE,ID PTCLDY    40  36  86 S9        30.00R
DEER PARK      FOG       30  28  92 CALM      30.00R VSB 3/4
$$

WAZ029>033-281200-
SOUTHEAST WASHINGTON

CITY           SKY/WX    TMP DP  RH WIND       PRES   REMARKS
PULLMAN        PTCLDY    39  31  72 W10       30.04R
LEWISTON, ID   CLOUDY    46  35  65 S6        30.05R
WALLA WALLA    PTCLDY    43  35  73 S12       30.13R
PENDLETON, OR  CLEAR     40  31  70 W20       30.11R
$$



USA.gov is the U.S. government's official web portal to all federal, state and local government web resources and services.